Date String (YYYY-MM-DD hh:mm:ss) UTC,Instrument flags,absolute air pressure of the measurement (hPa),sample flow rate (lpm),inlet stack bypass flow (lpm),air temperature of the measurement (°C),ambient temperature measured by the external sensor (°C),aerosol sample conditioner tube jacket temperature (°C),OPC LED temperature (°C),internal box temperature (°C),relative humidity of the measurement (%),span deviation,mass concentration of particles derived from Lorenz-Mie calculation of OPC scattering (μg/m³),mass concentration of particles derived from Lorenz-Mie calculation of OPC scattering (μg/m³),mass concentration of particles derived from Lorenz-Mie calculation of OPC scattering (μg/m³)
DateTimeUTC,F1_M11,P_M11,Q1_M11,Q2_M11,T1_M11,T2_M11,T3_M11,T4_M11,T5_M11,U1_M11,ZSPAN_M11,X0_M11,X2_M11,X1_M11
2023-06-06 18:00:00,SystemResetWarning,0831.5,5.00,000.00,029.0,026.2,000.0,037.7,030.4,33.2,0001.3,0010.35,0006.73,0006.28
2023-06-06 18:01:00,SystemResetWarning,0831.5,4.99,000.00,029.0,026.5,000.0,037.7,030.4,32.6,0001.2,0010.45,0006.84,0006.40
2023-06-06 18:02:00,SystemResetWarning,0831.4,5.00,000.00,029.1,026.8,000.0,037.7,030.5,32.8,0001.0,0010.56,0006.96,0006.52
2023-06-06 18:03:00,SystemResetWarning,0831.5,4.99,000.00,029.1,027.0,000.0,037.7,030.5,32.9,0000.8,0010.52,0006.99,0006.56
2023-06-06 18:04:00,SystemResetWarning,0831.4,4.99,000.00,029.1,027.2,000.0,037.7,030.5,32.9,0000.9,0010.54,0007.02,0006.59
2023-06-06 18:05:00,SystemResetWarning,0831.5,5.00,000.00,029.1,027.3,000.0,037.7,030.6,33.0,0001.0,0010.63,0007.07,0006.63
2023-06-06 18:06:00,SystemResetWarning,0831.4,5.00,000.00,029.1,027.5,000.0,037.7,030.7,33.2,0001.2,0010.67,0007.07,0006.64
2023-06-06 18:07:00,SystemResetWarning,0831.5,5.00,000.00,029.2,027.6,000.0,037.7,030.7,32.7,0001.0,0010.63,0007.11,0006.65
2023-06-06 18:08:00,SystemResetWarning,0831.4,5.00,000.00,029.2,027.7,000.0,037.7,030.7,33.1,0001.0,0010.65,0007.17,0006.65
2023-06-06 18:09:00,SystemResetWarning,0831.4,5.01,000.00,029.2,027.8,000.0,037.7,030.8,32.4,0001.3,0010.92,0007.22,0006.68
2023-06-06 18:10:00,SystemResetWarning,0831.4,5.00,000.00,029.2,027.9,000.0,037.7,030.8,32.4,0001.4,0011.06,0007.31,0006.75
2023-06-06 18:11:00,SystemResetWarning,0831.4,5.00,000.00,029.3,027.9,000.0,037.7,030.8,32.3,0001.3,0011.00,0007.29,0006.76
2023-06-06 18:12:00,SystemResetWarning,0831.4,4.99,000.00,029.3,028.0,000.0,037.8,030.8,32.5,0001.2,0010.93,0007.25,0006.71
2023-06-06 18:13:00,SystemResetWarning,0831.3,4.99,000.00,029.3,028.0,000.0,037.8,030.9,32.6,0001.4,0010.87,0007.19,0006.65
2023-06-06 18:14:00,SystemResetWarning,0831.3,5.00,000.00,029.4,027.6,000.0,037.8,031.0,32.6,0001.0,0010.98,0007.17,0006.63
2023-06-06 18:15:00,SystemResetWarning,0831.3,5.00,000.00,029.4,026.0,000.0,037.7,030.9,31.8,0001.1,0010.98,0007.18,0006.65
2023-06-06 18:16:00,SystemResetWarning,0831.3,5.00,000.00,029.4,025.4,000.0,037.7,030.9,32.1,0000.9,0010.96,0007.20,0006.68
2023-06-06 18:17:00,SystemResetWarning,0831.3,5.01,000.00,029.3,025.6,000.0,037.7,030.6,32.4,0001.1,0010.95,0007.22,0006.71
2023-06-06 18:18:00,SystemResetWarning,0831.3,5.01,000.00,029.2,025.9,000.0,037.7,030.5,31.8,0001.1,0011.00,0007.19,0006.72
2023-06-06 18:19:00,SystemResetWarning,0831.3,4.99,000.00,029.2,026.2,000.0,037.7,030.5,31.8,0000.9,0010.90,0007.19,0006.73
2023-06-06 18:20:00,SystemResetWarning,0831.3,5.00,000.00,029.2,026.5,000.0,037.7,030.6,30.7,0001.0,0011.06,0007.14,0006.69
2023-06-06 18:21:00,SystemResetWarning,0831.3,5.00,000.00,029.2,026.8,000.0,037.7,030.6,31.9,0000.8,0010.93,0007.03,0006.60
2023-06-06 18:22:00,SystemResetWarning,0831.3,4.98,000.00,029.2,027.1,000.0,037.7,030.6,32.7,0000.7,0011.05,0006.97,0006.54
2023-06-06 18:23:00,SystemResetWarning,0831.2,5.01,000.00,029.2,027.3,000.0,037.7,030.7,33.7,0000.8,0011.09,0006.91,0006.48
2023-06-06 18:24:00,SystemResetWarning,0831.3,5.01,000.00,029.2,027.5,000.0,037.8,030.7,32.7,0000.8,0011.10,0006.89,0006.44
2023-06-06 18:25:00,SystemResetWarning,0831.3,5.01,000.00,029.3,027.6,000.0,037.8,030.8,31.5,0001.3,0011.03,0006.90,0006.44
2023-06-06 18:26:00,SystemResetWarning,0831.3,5.00,000.00,029.3,027.7,000.0,037.8,030.8,32.3,0001.4,0011.01,0006.89,0006.41
2023-06-06 18:27:00,SystemResetWarning,0831.3,4.99,000.00,029.3,027.8,000.0,037.8,030.8,33.0,0001.5,0010.97,0006.85,0006.37
2023-06-06 18:28:00,SystemResetWarning,0831.3,5.00,000.00,029.3,027.9,000.0,037.8,030.9,32.5,0001.7,0011.01,0006.92,0006.43
2023-06-06 18:29:00,SystemResetWarning,0831.3,4.99,000.00,029.4,027.4,000.0,037.8,031.0,32.1,0001.7,0010.91,0006.98,0006.49
2023-06-06 18:30:00,SystemResetWarning,0831.3,5.00,000.00,029.4,025.7,000.0,037.7,030.9,31.7,0001.7,0010.88,0006.96,0006.48
2023-06-06 18:31:00,SystemResetWarning,0831.2,5.01,000.00,029.3,025.2,000.0,037.7,030.9,31.6,0001.3,0010.54,0007.01,0006.54
2023-06-06 18:32:00,SystemResetWarning,0831.2,5.00,000.00,029.3,025.4,000.0,037.7,030.5,32.0,0001.1,0010.93,0007.06,0006.60
2023-06-06 18:33:00,SystemResetWarning,0831.2,4.99,000.00,029.2,025.8,000.0,037.7,030.5,32.7,0001.2,0011.28,0007.10,0006.63
2023-06-06 18:34:00,SystemResetWarning,0831.2,5.00,000.00,029.2,026.1,000.0,037.7,030.5,31.9,0001.1,0011.36,0007.18,0006.70
2023-06-06 18:35:00,SystemResetWarning,0831.2,5.00,000.00,029.2,026.5,000.0,037.7,030.5,32.4,0000.9,0011.41,0007.23,0006.74
2023-06-06 18:36:00,SystemResetWarning,0831.2,5.00,000.00,029.2,026.8,000.0,037.7,030.6,33.5,0000.6,0011.45,0007.24,0006.77
2023-06-06 18:37:00,SystemResetWarning,0831.2,5.01,000.00,029.2,027.0,000.0,037.7,030.6,34.1,0000.6,0011.73,0007.43,0006.96
2023-06-06 18:38:00,SystemResetWarning,0831.1,5.00,000.00,029.2,027.2,000.0,037.7,030.7,35.1,0000.4,0012.16,0007.72,0007.22
2023-06-06 18:39:00,SystemResetWarning,0831.1,4.99,000.00,029.3,027.4,000.0,037.7,030.7,33.8,0000.2,0012.41,0007.92,0007.40
2023-06-06 18:40:00,SystemResetWarning,0831.1,5.00,000.00,029.4,027.5,000.0,037.8,030.8,33.5,0000.0,0012.58,0008.09,0007.56
2023-06-06 18:41:00,SystemResetWarning,0831.2,5.01,000.00,029.5,027.6,000.0,037.8,030.8,33.1,0000.3,0012.65,0008.26,0007.74
2023-06-06 18:42:00,SystemResetWarning,0831.1,4.99,000.00,029.5,027.7,000.0,037.8,030.8,33.7,0000.7,0012.98,0008.59,0008.07
2023-06-06 18:43:00,SystemResetWarning,0831.1,4.98,000.00,029.5,027.8,000.0,037.8,030.9,34.6,0000.7,0013.22,0009.11,0008.55
2023-06-06 18:44:00,SystemResetWarning,0831.1,5.02,000.00,029.6,027.9,000.0,037.9,030.9,34.5,0000.6,0013.43,0009.66,0009.04
2023-06-06 18:45:00,SystemResetWarning,0831.1,4.99,000.00,029.6,027.9,000.0,037.9,030.9,33.2,0000.8,0013.83,0010.06,0009.42
2023-06-06 18:46:00,SystemResetWarning,0831.1,4.98,000.00,029.7,027.5,000.0,037.9,031.0,33.6,0000.6,0014.30,0010.44,0009.78
2023-06-06 18:47:00,SystemResetWarning,0831.2,5.02,000.00,029.7,025.8,000.0,037.9,031.0,35.1,0000.8,0014.72,0010.85,0010.18
2023-06-06 18:48:00,SystemResetWarning,0831.1,4.98,000.00,029.8,025.2,000.0,037.9,031.0,33.6,0000.7,0014.83,0011.09,0010.45
2023-06-06 18:49:00,SystemResetWarning,0831.1,5.01,000.00,029.8,025.4,000.0,037.9,030.7,34.8,0000.7,0015.30,0011.17,0010.53
2023-06-06 18:50:00,SystemResetWarning,0831.1,5.01,000.00,029.8,025.7,000.0,037.9,030.6,34.2,0000.7,0015.72,0011.33,0010.69
2023-06-06 18:51:00,SystemResetWarning,0831.1,4.97,000.00,029.9,026.1,000.0,037.9,030.7,32.4,0000.5,0015.80,0011.47,0010.86
2023-06-06 18:52:00,SystemResetWarning,0831.1,5.02,000.00,030.0,026.4,000.0,038.0,030.7,32.3,0000.5,0015.99,0011.68,0011.07
2023-06-06 18:53:00,SystemResetWarning,0831.1,4.99,000.00,030.0,026.7,000.0,038.0,030.7,31.9,0000.2,0016.16,0011.78,0011.16
2023-06-06 18:54:00,SystemResetWarning,0831.1,4.99,000.00,030.0,027.0,000.0,038.1,030.8,30.6,0000.3,0016.20,0011.71,0011.08
2023-06-06 18:55:00,SystemResetWarning,0831.1,5.00,000.00,030.0,027.2,000.0,038.1,030.8,30.6,0000.4,0016.00,0011.45,0010.86
2023-06-06 18:56:00,SystemResetWarning,0831.1,5.00,000.00,030.0,027.4,000.0,038.2,030.9,30.9,0000.3,0015.71,0011.20,0010.65
2023-06-06 18:57:00,SystemResetWarning,0831.1,5.01,000.00,030.1,027.6,000.0,038.2,030.9,31.6,0000.4,0015.47,0011.02,0010.50
2023-06-06 18:58:00,SystemResetWarning,0831.1,4.99,000.00,030.1,027.7,000.0,038.2,031.0,34.5,0000.5,0015.44,0010.96,0010.46
2023-06-06 18:59:00,SystemResetWarning,0831.1,5.02,000.00,030.1,027.8,000.0,038.3,031.1,34.6,0000.4,0015.66,0011.04,0010.52
